Regional Weather Roundup
Issued by NWS Cleveland, OH

Home | Current Version | Previous Version | Graphics & Text | Print | Product List | Glossary On
Versions: 1 2 3 4 5 6 7 8 9 10 11 12 13 14 15 16 17 18 19 20 21 22 23 24 25 26 27 28 29 30 31 32 33 34 35 36 37 38 39 40 41 42 43 44 45 46 47 48 49 50
000
ASUS41 KCLE 240610
RWRCLE
OHIO REGIONAL WEATHER ROUNDUP
NATIONAL WEATHER SERVICE WILMINGTON, OH
200 AM EDT SUN MAY 24 2015

NOTE: "FAIR" INDICATES FEW OR NO CLOUDS BELOW 12,000 FEET WITH NO
SIGNIFICANT WEATHER AND/OR OBSTRUCTIONS TO VISIBILITY.

OHZ001>008-015>018-024>027-034-035-043-044-240700-
   NORTHWEST OHIO

CITY           SKY/WX    TMP DP  RH WIND       PRES   REMARKS
DEFIANCE       CLEAR     59  50  72 CALM      30.25F
FINDLAY        CLEAR     61  45  55 S7        30.26F
TOLEDO EXPRESS CLEAR     52  44  74 CALM      30.25F
TOLEDO EXEC    CLEAR     58  41  53 SE6       30.27F
LIMA           CLEAR     59  46  62 S7        30.28S
$$

OHZ009>014-019>023-028>033-038-089-240700-
   NORTHEAST OHIO

CITY           SKY/WX    TMP DP  RH WIND       PRES   REMARKS
CLE-HOPKINS    CLEAR     50  42  74 CALM      30.30F
CLE-LAKEFRONT  CLEAR     61  39  44 SE9       30.27F
CUY CO. ARPT   NOT AVBL
LORAIN-ELYRIA  CLEAR     55  41  59 CALM      30.29F
ASHTABULA      CLEAR     46  41  82 CALM      30.32F
AKRON-CANTON   CLEAR     57  39  51 S3        30.31F
WOOSTER        CLEAR     50  41  71 CALM      30.31F
MANSFIELD      CLEAR     58  40  51 S6        30.30F
YOUNGSTOWN     CLEAR     56  37  49 S7        30.32S
$$

OHZ042-051>053-060>062-070>072-077>081-240700-
  SOUTHWEST OHIO

CITY           SKY/WX    TMP DP  RH WIND       PRES   REMARKS
CINC-COVINGTON CLEAR     62  46  55 SE7       30.27F
CINC-LUNKEN    CLEAR     53  50  89 CALM      30.28F
HAMILTON       CLEAR     52  48  86 CALM      30.28S
DAYTON         PTCLDY    61  46  57 S5        30.28F
WRIGHT-PAT AFB CLEAR     55  48  76 N2        30.27F
DAYTON GENERAL PTCLDY    63  45  51 SE7       30.27F
WILMINGTON     PTCLDY    60  43  53 SE5       30.28F
$$

OHZ036-037-039>041-045>050-054>059-063>069-073>076-082>088-240700-
  CENTRAL AND SOUTHEAST OHIO

CITY           SKY/WX    TMP DP  RH WIND       PRES   REMARKS
COLUMBUS       MOCLDY    61  44  53 CALM      30.30S
OSU AIRPORT    PTCLDY    60  42  51 SE3       30.30S
BOLTON FIELD   NOT AVBL
RICKENBACK AFB PTCLDY    57  45  64 CALM      30.29S
NEWARK         CLEAR     51  47  86 CALM      30.31S
MARION         CLEAR     56  42  59 S7        30.30S
LANCASTER      PTCLDY    53  47  79 CALM      30.31S
ZANESVILLE     CLEAR     50  44  80 CALM      30.31S
NEW PHILLY     CLEAR     51  45  79 CALM      30.32F
$$


USA.gov is the U.S. government's official web portal to all federal, state and local government web resources and services.